Waarnemingen

Advertentie
Mijn weer
Montpellier, Frankrijk (7643): temperatuur & dauwpunt: 28.11.2020 00:00:00 - 04.12.2020 00:00:00 (CET)Montpellier, Frankrijk (7643): temperatuur 5cm: 28.11.2020 00:00:00 - 04.12.2020 00:00:00 (CET)Montpellier, Frankrijk (7643): temperatuur -20cm & temperatuur -100cm: 28.11.2020 00:00:00 - 04.12.2020 00:00:00 (CET)Montpellier, Frankrijk (7643): windsnelheid & windstoten: 28.11.2020 00:00:00 - 04.12.2020 00:00:00 (CET)Montpellier, Frankrijk (7643): windrichting: 28.11.2020 00:00:00 - 04.12.2020 00:00:00 (CET)Montpellier, Frankrijk (7643): luchtdruk: 28.11.2020 00:00:00 - 04.12.2020 00:00:00 (CET)Montpellier, Frankrijk (7643): zicht: 28.11.2020 00:00:00 - 04.12.2020 00:00:00 (CET)Montpellier, Frankrijk (7643): Zonneschijnduur: 28.11.2020 00:00:00 - 04.12.2020 00:00:00 (CET)Montpellier, Frankrijk (7643): neerslag: 28.11.2020 00:00:00 - 04.12.2020 00:00:00 (CET)
Datum & Tijd tt [°C] td [°C] tt 5cm [°C] tt -20cm [°C] tt -100cm [°C] ff [km/u] ff [kn] fx [km/u] fx [kn] dd ppp [hPa] vv [km] sd [min] rr [mm]
04.12.2020 00:00:00 - - - - - - - - - - - - - -
03.12.2020 23:00:00 12,3 6,6 11,1 9,5 14,7 35 19 48 26 ZZO 997,7 51 0 0,0
03.12.2020 22:00:00 12,2 5,6 11,3 9,5 14,7 32 18 43 23 ZZO 999,3 60 0 0,0
03.12.2020 21:00:00 12,2 6,2 10,7 9,5 14,7 23 12 41 22 Z 1000,7 60 0 0,0
03.12.2020 20:00:00 11,7 5,8 9,6 9,5 14,7 19 11 33 18 Z 1001,5 60 0 0,0
03.12.2020 19:00:00 10,8 5,7 8,5 9,5 14,7 19 10 31 17 Z 1002,7 60 0 0,0
03.12.2020 18:00:00 9,9 4,9 7,9 9,5 14,7 12 7 26 14 ZZW 1003,2 60 0 0,0
03.12.2020 17:00:00 10,3 4,9 9,1 9,5 14,8 14 7 22 12 ZZW 1004,1 60 0 0,0
03.12.2020 16:00:00 11,5 4,2 11,5 9,4 14,8 10 6 26 14 ZZW 1005,0 60 41 0,0
03.12.2020 15:00:00 12,0 4,0 12,8 9,2 14,8 16 8 30 16 W 1005,9 59 46 0,0
03.12.2020 14:00:00 12,8 3,2 15,7 8,9 14,8 13 7 29 15 W 1006,8 60 60 0,0
03.12.2020 13:00:00 12,4 2,5 14,3 8,7 14,8 10 6 27 14 W 1007,7 60 58 0,0
03.12.2020 12:00:00 11,8 2,0 13,9 8,4 14,8 10 6 29 16 WNW 1008,9 56 54 0,0
03.12.2020 11:00:00 10,9 0,9 10,7 8,3 14,8 18 10 28 15 NW 1010,4 60 60 0,0
03.12.2020 10:00:00 9,0 0,7 8,1 8,2 14,8 15 8 25 14 WNW 1010,7 59 36 0,0
03.12.2020 09:00:00 8,0 0,9 5,0 8,1 14,8 17 9 22 12 WZW 1010,9 60 35 0,0
03.12.2020 08:00:00 7,2 -0,1 4,9 8,2 14,8 17 9 29 16 WNW 1011,2 49 0 0,0
03.12.2020 07:00:00 7,5 0,7 5,7 8,2 14,9 21 11 33 18 WNW 1011,5 60 0 0,0
03.12.2020 06:00:00 7,2 0,8 4,8 8,3 14,9 21 11 36 19 W 1011,3 60 0 0,0
03.12.2020 05:00:00 6,7 1,0 2,4 8,4 14,9 19 10 27 15 WNW 1011,8 60 0 0,0
03.12.2020 04:00:00 6,1 0,2 3,1 8,4 14,9 17 9 21 11 W 1012,7 60 0 0,0
03.12.2020 03:00:00 7,3 -0,2 4,1 8,5 14,9 18 10 26 14 NW 1012,9 60 0 0,0
03.12.2020 02:00:00 6,9 0,1 -2,5 8,6 14,9 13 7 16 9 WNW 1013,1 60 0 0,0
03.12.2020 01:00:00 2,6 -1,6 -3,1 8,8 14,9 7 4 12 7 NW 1013,3 60 0 0,0
03.12.2020 00:00:00 3,9 -1,1 -2,6 8,9 14,9 6 4 15 8 NNW 1013,4 60 0 0,0
02.12.2020 23:00:00 5,4 -0,7 2,5 9,0 14,9 11 6 13 7 NNW 1013,4 60 0 0,0
02.12.2020 22:00:00 6,7 0,4 5,2 9,1 15,0 8 4 16 9 N 1013,7 60 0 0,0
02.12.2020 21:00:00 6,8 0,2 1,0 9,2 15,0 9 5 17 9 N 1013,6 60 0 0,0
02.12.2020 20:00:00 4,8 -1,2 0,5 9,3 15,0 9 5 16 8 N 1013,3 60 0 0,0
02.12.2020 19:00:00 8,0 -0,3 6,3 9,3 15,0 13 7 29 15 NO 1012,6 60 0 0,0
02.12.2020 18:00:00 11,0 -1,4 10,0 9,3 15,0 20 11 41 22 NW 1012,1 60 0 0,0
02.12.2020 17:00:00 11,7 -1,1 10,9 9,2 15,0 26 14 39 21 NNW 1011,3 60 24 0,0
02.12.2020 16:00:00 12,3 -0,9 11,7 9,2 15,0 19 10 38 20 NNW 1010,7 60 29 0,0
02.12.2020 15:00:00 12,2 -0,4 12,2 9,0 15,0 16 9 34 18 NNO 1010,2 60 4 0,0
02.12.2020 14:00:00 11,7 2,2 12,4 8,8 15,0 9 5 16 9 WNW 1010,2 57 25 0,0
02.12.2020 13:00:00 11,4 3,4 13,4 8,5 15,0 6 4 17 9 Z 1010,3 60 60 0,0
02.12.2020 12:00:00 10,8 3,3 12,5 8,2 15,0 16 8 23 12 O 1010,9 60 60 0,0
02.12.2020 11:00:00 9,7 1,3 6,7 8,1 15,0 13 7 17 9 O 1011,6 60 55 0,0
02.12.2020 10:00:00 6,3 1,6 4,6 8,1 15,1 2 1 10 6 O 1012,0 56 29 0,0
02.12.2020 09:00:00 4,4 0,9 1,9 8,1 15,1 7 4 18 10 N 1011,9 59 8 0,0
02.12.2020 08:00:00 7,2 1,1 -1,3 8,1 15,1 15 8 24 13 WNW 1011,6 60 0 0,0
02.12.2020 07:00:00 4,6 0,4 -2,3 8,2 15,1 7 4 19 10 NW 1011,4 60 0 0,0
02.12.2020 06:00:00 6,8 0,7 4,5 8,2 15,1 14 7 26 14 WNW 1011,3 60 0 0,0
02.12.2020 05:00:00 6,7 0,8 4,7 8,3 15,1 18 10 34 18 W 1011,4 60 0 0,0
02.12.2020 04:00:00 7,1 0,5 5,1 8,4 15,1 24 13 35 19 W 1011,8 60 0 0,0
02.12.2020 03:00:00 7,2 0,4 4,5 8,4 15,2 21 11 33 18 WNW 1012,4 60 0 0,0
02.12.2020 02:00:00 6,6 -0,2 4,7 8,4 15,1 20 11 32 17 W 1012,7 60 0 0,0
02.12.2020 01:00:00 6,7 0,4 4,3 8,5 15,2 22 12 29 16 W 1013,2 60 0 0,0
02.12.2020 00:00:00 6,2 0,3 3,4 8,6 15,2 16 9 26 14 W 1013,7 60 0 0,0
01.12.2020 23:00:00 5,8 0,3 2,3 8,7 15,2 19 11 27 15 W 1014,2 60 0 0,0
01.12.2020 22:00:00 5,0 0,2 2,8 8,7 15,2 17 9 24 13 WZW 1014,6 38 0 0,0
01.12.2020 21:00:00 6,5 0,8 4,3 8,8 15,2 16 9 27 14 WNW 1015,1 55 0 0,0
01.12.2020 20:00:00 7,1 1,0 5,1 8,9 15,2 21 11 29 15 WNW 1015,6 58 0 0,0
01.12.2020 19:00:00 7,5 1,1 5,6 9,0 15,2 18 10 28 15 WNW 1016,3 60 0 0,0
01.12.2020 18:00:00 8,1 1,9 6,1 9,0 15,2 20 11 32 18 WNW 1016,3 60 0 0,0
01.12.2020 17:00:00 9,0 3,2 7,8 9,0 15,2 26 14 45 25 WNW 1016,2 60 1 0,0
01.12.2020 16:00:00 9,7 3,9 9,2 8,9 15,2 31 17 45 24 WNW 1016,0 60 0 0,0
01.12.2020 15:00:00 9,8 4,2 9,0 8,8 15,2 27 15 51 27 W 1016,2 44 0 0,0
01.12.2020 14:00:00 9,8 3,7 9,1 8,6 15,3 34 18 60 33 WNW 1016,7 49 0 0,0
01.12.2020 13:00:00 10,2 3,7 10,0 8,5 15,3 45 24 63 34 WNW 1017,2 51 0 0,0
01.12.2020 12:00:00 10,5 3,5 10,3 8,3 15,3 45 24 75 40 WNW 1017,7 30 0 0,0
01.12.2020 11:00:00 11,3 3,6 6,8 8,2 15,3 32 18 56 30 NW 1018,6 54 0 0,0
01.12.2020 10:00:00 8,0 2,7 2,7 8,1 15,3 22 12 32 17 W 1019,2 25 0 0,2
01.12.2020 09:00:00 2,7 0,9 1,6 8,0 15,3 4 2 13 7 ONO 1020,2 8 0 0,0
01.12.2020 08:00:00 2,0 0,2 0,9 8,0 15,3 10 6 16 8 ONO 1020,5 9 0 0,0
01.12.2020 07:00:00 1,3 -0,6 -0,7 8,0 15,3 4 2 14 8 WNW 1020,7 10 0 0,0
01.12.2020 06:00:00 0,1 -1,3 -3,1 8,1 15,3 0 0 10 6 N 1021,0 10 0 0,0
01.12.2020 05:00:00 -0,7 -2,1 -3,7 8,2 15,3 3 2 15 8 NNW 1021,2 8 0 0,0
01.12.2020 04:00:00 -1,5 -2,6 -5,5 8,4 15,3 8 4 10 5 NO 1022,0 7 0 0,0
01.12.2020 03:00:00 -1,4 -2,8 -6,1 8,5 15,3 5 3 9 5 N 1022,3 9 0 0,0
01.12.2020 02:00:00 -0,8 -2,7 -6,9 8,7 15,3 6 3 8 4 NNW 1022,7 11 0 0,0
01.12.2020 01:00:00 -1,1 -3,1 -6,7 8,9 15,3 4 2 12 7 N 1023,2 11 0 0,0
01.12.2020 00:00:00 1,2 -2,2 -5,2 9,1 15,4 6 3 10 6 N 1023,7 12 0 0,0
30.11.2020 23:00:00 1,1 -1,8 -3,7 9,2 15,3 7 4 18 10 NNO 1023,8 14 0 0,0
30.11.2020 22:00:00 1,2 -1,7 -3,5 9,4 15,4 8 5 15 8 NNO 1023,9 14 0 0,0
30.11.2020 21:00:00 1,8 -1,1 -2,9 9,6 15,3 8 5 17 9 NNO 1023,9 11 0 0,0
30.11.2020 20:00:00 2,8 -0,7 -0,6 9,8 15,4 10 5 18 10 NNO 1024,0 16 0 0,0
30.11.2020 19:00:00 3,8 0,0 -0,6 10,0 15,4 9 5 22 12 NO 1023,8 6 0 0,0
30.11.2020 18:00:00 5,1 0,3 1,3 10,0 15,4 14 7 19 10 NO 1023,2 20 0 0,0
30.11.2020 17:00:00 7,9 1,1 4,4 10,0 15,3 10 6 17 9 NO 1023,0 27 44 0,0
30.11.2020 16:00:00 11,0 2,0 11,2 10,0 15,4 12 6 21 12 NNO 1022,8 26 60 0,0
30.11.2020 15:00:00 11,1 1,3 13,4 9,9 15,4 14 8 25 14 NNO 1022,8 20 60 0,0
30.11.2020 14:00:00 10,6 0,6 13,4 9,7 15,4 15 8 27 15 NNO 1023,1 18 60 0,0
30.11.2020 13:00:00 9,6 0,5 12,1 9,5 15,4 19 10 32 17 N 1023,6 17 60 0,0
30.11.2020 12:00:00 8,6 0,8 10,0 9,4 15,4 22 12 36 20 NNO 1024,0 17 60 0,0
30.11.2020 11:00:00 7,1 0,5 7,9 9,3 15,4 24 13 38 21 NNO 1024,4 10 60 0,0
30.11.2020 10:00:00 5,4 0,4 5,4 9,3 15,4 27 15 40 22 N 1023,9 17 60 0,0
30.11.2020 09:00:00 4,1 0,4 0,9 9,4 15,4 20 11 30 16 N 1023,6 16 39 0,0
30.11.2020 08:00:00 2,3 -0,1 0,4 9,5 15,4 16 9 24 13 N 1022,8 13 0 0,0
30.11.2020 07:00:00 1,9 -0,4 0,2 9,7 15,4 14 8 19 11 N 1022,4 13 0 0,0
30.11.2020 06:00:00 2,3 -0,1 0,3 9,8 15,4 10 6 19 10 N 1021,8 15 0 0,0
30.11.2020 05:00:00 2,4 -0,2 0,5 9,9 15,4 9 5 18 10 N 1021,5 17 0 0,0
30.11.2020 04:00:00 2,9 0,1 1,2 10,0 15,4 13 7 25 13 N 1021,2 17 0 0,0
30.11.2020 03:00:00 2,8 0,4 1,0 10,2 15,4 12 7 21 11 NNO 1021,1 16 0 0,0
30.11.2020 02:00:00 3,1 0,7 0,5 10,4 15,4 11 6 17 9 N 1020,8 14 0 0,0
30.11.2020 01:00:00 2,8 0,7 -0,3 10,6 15,4 9 5 16 9 N 1020,6 13 0 0,0
30.11.2020 00:00:00 3,2 0,9 0,4 10,7 15,4 9 5 18 10 NNO 1020,3 13 0 0,0
29.11.2020 23:00:00 4,1 1,5 1,8 10,9 15,5 10 5 17 9 NNO 1019,7 13 0 0,0
29.11.2020 22:00:00 4,3 1,7 1,8 11,1 15,4 8 4 27 14 N 1019,3 14 0 0,0
29.11.2020 21:00:00 4,8 2,2 2,9 11,3 15,4 17 9 27 15 NNO 1018,6 13 0 0,0
29.11.2020 20:00:00 6,7 2,9 5,0 11,4 15,4 15 8 27 15 NNO 1018,3 17 0 0,0
29.11.2020 19:00:00 8,0 3,8 1,6 11,6 15,4 10 5 18 10 NO 1017,5 23 0 0,0
29.11.2020 18:00:00 10,0 3,7 2,2 11,7 15,4 6 4 12 7 ONO 1017,0 19 0 0,0
29.11.2020 17:00:00 12,6 4,5 7,6 11,7 15,4 6 4 12 6 O 1016,3 31 44 0,0
29.11.2020 16:00:00 15,0 5,2 15,4 11,6 15,4 5 3 11 6 OZO 1015,9 30 60 0,0
29.11.2020 15:00:00 15,0 4,9 16,4 11,4 15,4 8 4 10 6 OZO 1015,8 40 58 0,0
29.11.2020 14:00:00 14,2 5,3 17,6 11,3 15,4 7 4 14 7 ZO 1015,9 20 60 0,0
29.11.2020 13:00:00 13,8 5,4 17,3 10,9 15,4 10 5 16 9 O 1016,0 33 60 0,0
29.11.2020 12:00:00 12,9 4,8 15,4 10,8 15,5 9 5 19 11 NO 1016,2 33 60 0,0
29.11.2020 11:00:00 11,7 4,9 13,8 10,6 15,4 15 8 23 12 NNO 1016,2 30 60 0,0
29.11.2020 10:00:00 9,9 4,9 10,7 10,6 15,4 11 6 17 9 N 1015,5 22 60 0,0
29.11.2020 09:00:00 6,9 5,5 0,2 10,7 15,4 8 4 11 6 NW 1015,0 15 40 0,0
29.11.2020 08:00:00 4,7 3,2 0,1 10,8 15,4 8 4 9 5 NW 1014,3 26 0 0,0
29.11.2020 07:00:00 4,1 2,3 0,1 11,0 15,5 6 4 11 6 NNW 1013,9 27 0 0,0
29.11.2020 06:00:00 6,2 4,0 0,9 11,1 15,4 9 5 12 7 N 1013,5 30 0 0,0
29.11.2020 05:00:00 6,8 4,6 2,2 11,3 15,4 9 5 14 8 N 1013,0 26 0 0,0
29.11.2020 04:00:00 6,6 4,3 3,4 11,4 15,4 9 5 19 11 NNO 1012,9 28 0 0,0
29.11.2020 03:00:00 6,4 3,9 1,3 11,6 15,4 14 7 19 10 NNO 1012,9 29 0 0,0
29.11.2020 02:00:00 7,8 4,0 2,8 11,7 15,4 9 5 15 8 NNO 1012,7 35 0 0,0
29.11.2020 01:00:00 7,8 4,2 5,2 11,9 15,5 4 2 19 11 NW 1012,8 35 0 0,0
29.11.2020 00:00:00 8,8 4,6 5,7 12,0 15,5 13 7 19 11 NNO 1012,6 37 0 0,0
28.11.2020 23:00:00 9,5 4,5 6,1 12,1 15,5 10 5 23 12 NNO 1012,1 38 0 0,0
28.11.2020 22:00:00 11,0 5,5 9,3 12,2 15,4 18 10 27 15 N 1011,5 42 0 0,0
28.11.2020 21:00:00 11,5 5,4 10,0 12,2 15,4 18 10 29 16 NNO 1011,5 41 0 0,0
28.11.2020 20:00:00 12,6 5,7 10,5 12,3 15,4 18 10 26 14 NNO 1010,9 45 0 0,0
28.11.2020 19:00:00 11,8 6,3 10,5 12,4 15,4 10 5 19 10 NNO 1010,6 37 0 0,0
28.11.2020 18:00:00 12,5 7,0 11,4 12,4 15,4 13 7 22 12 NNO 1010,4 43 0 0,0
28.11.2020 17:00:00 13,0 7,7 11,9 12,4 15,4 15 8 30 16 NNO 1010,5 36 0 0,0
28.11.2020 16:00:00 13,9 7,4 12,5 12,3 15,5 14 7 26 14 NNO 1010,2 37 0 0,0
28.11.2020 15:00:00 15,3 7,6 14,8 12,2 15,4 14 8 28 15 NNO 1009,8 52 0 0,0
28.11.2020 14:00:00 16,2 7,7 15,9 12,1 15,4 20 11 37 20 NO 1009,9 41 0 0,0
28.11.2020 13:00:00 15,5 7,8 15,6 11,9 15,4 21 11 32 18 NO 1010,4 44 8 0,0
28.11.2020 12:00:00 14,6 6,9 13,6 11,8 15,4 21 12 34 18 NNO 1010,8 48 13 0,0
28.11.2020 11:00:00 13,0 6,3 12,9 11,8 15,4 23 12 36 19 NNO 1011,3 47 8 0,0
28.11.2020 10:00:00 12,7 6,7 11,6 11,8 15,4 18 10 30 16 NNO 1011,1 44 4 0,0
28.11.2020 09:00:00 11,9 6,6 10,7 11,8 15,4 19 10 27 15 NNO 1010,9 48 0 0,0
28.11.2020 08:00:00 11,7 6,6 10,0 11,8 15,4 16 9 26 14 NNO 1010,5 60 0 0,0
28.11.2020 07:00:00 11,4 6,9 10,3 11,9 15,4 20 11 31 17 NNO 1010,2 60 0 0,0
28.11.2020 06:00:00 12,0 7,1 10,3 11,9 15,4 18 10 28 15 NNO 1010,4 59 0 0,0
28.11.2020 05:00:00 11,3 7,4 10,5 11,9 15,4 19 11 28 15 NNO 1011,0 50 0 0,0
28.11.2020 04:00:00 11,8 7,9 10,3 12,0 15,5 18 10 29 15 NNO 1011,4 48 0 0,0
28.11.2020 03:00:00 11,8 8,3 10,6 12,0 15,4 16 8 36 19 NNO 1012,1 34 0 0,0
28.11.2020 02:00:00 12,3 8,2 11,4 12,0 15,4 19 10 34 19 NNO 1012,4 41 0 0,0
28.11.2020 01:00:00 12,5 8,4 10,4 12,0 15,5 21 11 32 17 NNO 1013,2 35 0 0,0
28.11.2020 00:00:00 11,4 8,3 10,4 12,1 15,4 19 11 27 15 NNO 1013,9 34 0 0,0

tt = temperatuur
td = dauwpunt
tt 5cm = temperatuur 5cm
tt -20cm = temperatuur -20cm
tt -100cm = temperatuur -100cm
ff = windsnelheid
fx = windstoten
dd = windrichting
ppp = luchtdruk
vv = zicht
sd = Zonneschijnduur
rr = neerslag

Weerstations in de omgeving